Theta_e
325 325 327 330 330 327 325 325 330 335 338 339 340 341 341 344 349 350 349 351 352 351 351 350 349 351 349 348 350 352 350 349 347 347 348 349 349 349 349 350 349 347 346 348 349 350 351 351 351 351 351 351 351 350 350 351 351 353 356 356 355 355 355 355 355 354 353 353 354 355 355 354 354 354 353 353 352 352 353 353 354 354 354 354 355 355 355
325 323 322 324 326 327 327 326 331 336 338 338 339 341 344 345 346 348 349 350 351 349 348 348 348 347 345 344 346 347 348 348 347 347 348 348 347 347 347 348 348 347 346 346 347 348 349 349 351 351 351 351 351 350 350 350 351 351 352 353 352 351 351 353 353 352 351 352 353 355 356 354 354 354 353 352 351 350 351 353 354 355 355 355 355 355 355
325 325 324 323 325 329 329 328 333 337 338 339 340 341 343 344 343 344 346 349 351 349 347 347 345 343 343 344 346 348 348 347 348 348 347 347 347 347 347 347 347 347 347 346 346 347 347 348 350 350 349 350 350 350 350 349 350 351 352 352 351 350 349 351 351 352 351 351 353 357 357 356 354 353 352 352 351 350 350 352 354 355 355 355 355 355 355
324 326 321 322 327 330 330 332 334 337 338 338 340 342 344 344 343 343 346 350 352 349 347 346 343 340 342 344 347 349 348 347 347 347 347 347 347 347 346 346 345 345 345 345 344 345 345 345 348 348 347 347 347 347 348 348 348 351 352 350 350 350 349 350 351 352 352 353 355 358 358 357 357 356 355 354 352 349 350 353 355 356 355 355 355 355 355
328 329 323 324 328 330 335 337 333 335 339 337 337 339 342 343 345 347 350 350 349 347 346 345 343 341 342 344 344 346 347 347 346 346 346 346 345 345 345 344 344 344 343 343 344 343 343 345 346 347 346 347 347 346 346 346 347 350 350 348 348 348 347 349 352 352 351 352 354 356 357 357 356 357 357 357 355 352 351 353 355 354 355 355 354 354 354
328 332 330 331 335 337 343 339 331 333 338 335 335 338 338 341 345 347 348 348 346 345 344 343 342 341 341 341 340 341 342 344 345 345 344 344 343 343 343 343 343 343 343 344 344 343 344 344 344 345 345 346 347 348 348 347 346 346 346 346 347 345 344 346 351 353 353 353 352 354 356 356 355 356 356 356 357 356 355 354 353 353 353 354 353 353 353
326 337 338 335 337 343 344 339 334 336 334 332 334 336 336 341 344 345 348 347 345 344 342 341 340 339 337 337 337 338 338 338 340 341 340 340 341 340 340 340 341 342 343 343 343 343 343 342 342 343 343 344 345 346 347 348 347 347 349 349 349 347 345 346 348 348 351 353 353 354 356 355 356 356 353 351 352 355 356 355 353 351 352 353 352 352 352
325 334 335 333 337 341 338 337 338 335 331 332 337 338 338 340 343 346 348 346 343 343 342 341 340 338 336 336 335 335 336 334 335 335 334 333 334 334 334 334 335 337 340 342 342 341 340 340 340 340 340 341 342 342 343 345 346 347 349 350 350 350 349 349 348 347 349 352 354 354 355 353 354 354 352 349 350 352 354 354 352 351 350 351 351 351 351
325 332 333 333 335 337 336 341 340 335 331 331 337 340 338 338 341 344 346 345 343 342 342 342 341 338 338 339 337 334 334 333 332 331 330 328 328 329 330 331 332 333 335 337 339 339 338 338 338 338 338 339 339 339 340 341 343 344 345 346 347 348 348 348 349 349 349 351 352 353 353 353 352 352 352 351 351 351 352 351 350 350 350 349 349 350 351
330 336 333 329 331 335 340 343 342 337 333 329 333 339 338 338 340 342 345 346 344 342 343 344 342 342 344 345 340 335 333 331 329 328 326 324 325 326 327 329 330 330 331 332 334 335 336 336 336 336 336 336 336 336 336 337 339 340 341 343 343 345 345 345 346 346 347 348 349 349 349 350 350 349 350 350 350 350 350 350 349 348 348 348 348 349 350
327 331 334 334 334 338 344 343 338 335 332 329 334 343 341 338 338 339 343 347 345 342 344 343 341 345 349 345 338 336 333 328 327 328 326 323 324 325 325 327 328 329 329 329 330 331 332 333 334 333 333 334 334 334 333 334 334 335 336 337 339 341 342 343 344 344 345 345 345 346 346 346 346 347 347 347 347 347 347 348 349 349 347 347 348 350 351
329 334 340 341 338 337 339 338 333 330 330 328 332 341 342 340 339 340 342 346 346 343 343 343 342 347 349 342 337 335 331 325 325 326 324 322 323 323 324 325 326 327 328 328 328 329 329 329 330 331 331 331 331 331 331 331 331 331 332 333 335 337 339 341 343 343 343 343 344 345 345 345 345 345 346 346 346 347 347 347 347 349 350 350 350 350 351
336 341 341 339 340 339 336 335 332 329 334 338 337 339 344 343 342 342 341 343 344 342 341 342 341 340 340 337 335 333 330 328 326 323 322 322 323 323 323 323 325 326 326 327 327 327 328 328 329 328 328 328 327 327 328 328 327 328 330 332 334 336 337 339 340 340 340 342 343 344 344 343 343 344 346 347 347 347 347 346 345 347 349 350 350 349 349
332 342 343 338 340 340 334 336 336 334 340 346 341 340 344 344 341 342 342 343 342 339 337 336 335 333 332 333 334 332 332 331 328 323 322 323 323 323 323 322 323 324 325 326 327 327 328 328 328 328 328 328 327 327 327 326 326 326 328 330 331 332 333 334 335 337 338 338 339 341 341 341 341 342 345 346 346 346 346 346 345 345 345 345 346 345 346
333 341 341 340 342 339 333 337 340 337 340 343 339 338 341 342 342 342 342 342 340 335 333 333 332 331 331 331 332 331 330 330 327 323 323 324 324 324 324 323 322 323 323 325 326 326 327 327 327 328 328 328 328 328 328 328 326 324 325 326 327 328 327 328 331 334 336 335 335 336 337 337 337 338 339 341 343 344 345 344 343 342 342 342 342 342 341
338 339 338 341 345 340 335 337 338 335 336 337 339 341 341 340 341 341 340 340 338 334 334 334 333 332 331 331 331 330 329 327 323 321 323 324 323 323 324 324 323 323 323 324 325 325 326 325 325 326 327 327 327 327 327 328 326 325 325 324 325 325 325 325 327 330 331 332 333 333 334 334 333 332 332 334 337 340 342 342 342 341 340 340 339 336 335
338 342 338 337 337 333 333 335 334 332 334 335 338 342 342 340 340 340 341 340 337 335 334 334 333 331 330 330 329 328 327 325 321 320 321 322 322 322 323 323 324 324 324 325 325 324 324 324 323 324 325 326 326 326 326 326 326 325 325 324 323 324 325 325 325 326 327 328 330 331 331 331 331 330 330 332 333 335 337 340 341 340 337 335 334 334 334
333 338 332 330 332 330 331 332 331 332 334 334 337 341 341 340 340 341 341 340 338 336 334 334 335 332 330 329 328 326 327 324 320 319 320 321 320 320 321 322 323 324 325 324 324 324 323 322 322 322 323 324 324 324 325 325 326 325 324 324 324 324 326 326 325 325 324 324 326 327 326 326 325 324 326 329 331 331 333 336 338 338 335 332 333 335 335
334 334 329 330 332 331 331 332 331 334 334 334 338 340 339 339 342 343 341 340 340 338 335 335 336 333 331 330 327 327 327 324 320 318 319 319 318 317 318 320 321 323 325 324 324 324 323 323 321 320 321 322 322 323 323 324 325 325 324 323 324 325 326 327 326 325 323 322 323 324 322 322 320 317 317 321 324 327 329 332 335 336 335 334 334 334 332
339 334 331 332 332 331 332 332 331 333 335 335 337 340 340 340 340 338 336 338 340 340 338 337 337 335 333 330 327 328 327 323 319 319 319 319 319 319 319 320 319 320 322 323 323 322 322 321 321 319 317 317 317 319 321 322 323 325 325 323 323 325 326 325 325 325 324 323 323 321 320 319 318 314 313 314 316 318 321 326 331 333 333 333 333 330 326
336 332 331 332 332 330 331 332 333 335 336 335 336 338 339 339 338 337 335 334 335 337 336 335 336 337 335 329 326 328 326 321 319 320 318 318 321 321 322 323 322 319 318 319 320 321 320 319 318 317 315 314 314 315 315 316 319 324 325 323 321 324 325 324 324 324 324 323 324 323 322 320 318 316 315 314 314 314 314 318 325 330 331 331 329 327 326
334 334 333 332 333 333 331 332 335 337 337 336 335 335 337 339 339 340 338 334 332 332 331 331 334 339 337 329 324 324 324 320 320 320 318 319 322 323 324 325 324 321 319 317 316 317 318 318 317 316 316 316 316 317 316 316 318 322 324 322 320 322 324 325 324 324 324 325 325 325 324 323 321 319 317 315 314 315 314 315 318 322 325 325 324 324 323
335 337 336 335 337 337 333 331 334 336 336 337 336 334 336 338 337 337 338 337 335 334 332 330 332 335 334 329 326 324 323 322 321 320 318 319 322 323 324 324 324 323 322 320 317 315 315 315 315 315 316 317 318 318 319 320 320 322 323 321 320 321 323 324 324 324 325 326 325 324 324 324 322 320 319 317 316 316 316 316 316 316 317 317 317 317 317
337 335 336 337 336 335 333 333 335 334 332 333 335 335 334 333 329 328 332 335 336 337 335 331 330 331 330 329 328 327 326 325 322 320 319 320 321 323 324 325 325 324 324 323 321 318 315 314 313 312 313 315 315 315 317 319 321 321 322 322 321 321 323 323 322 322 323 324 324 324 324 325 324 322 321 320 318 317 317 317 316 316 316 316 316 316 315
339 333 335 337 337 335 335 333 333 331 326 327 332 332 327 325 323 324 326 328 330 333 334 332 330 330 329 328 329 329 328 327 324 321 322 323 324 325 325 325 326 326 324 323 322 319 317 317 316 314 313 314 313 312 313 317 320 320 321 322 322 321 322 322 322 321 322 322 321 322 323 324 324 324 323 322 321 319 318 317 317 317 317 317 317 316 315
338 335 336 337 336 334 331 328 331 331 327 325 329 329 324 320 321 322 324 325 327 329 331 330 330 330 329 329 329 329 329 329 328 327 326 327 327 327 327 326 326 325 324 323 322 320 318 318 318 318 317 316 315 313 312 314 318 319 319 320 321 321 321 321 321 321 321 321 320 321 321 321 322 323 323 324 324 322 319 318 317 317 318 318 318 316 316
336 335 332 330 329 330 330 329 330 329 325 323 324 324 321 321 322 323 323 324 326 328 329 328 329 329 329 329 329 329 329 328 328 329 329 329 328 328 327 326 326 324 323 323 322 321 319 319 319 319 318 317 317 316 313 313 316 318 316 315 318 320 321 321 320 320 321 321 320 320 320 320 321 321 322 324 325 324 322 320 318 317 318 319 318 317 317
336 337 338 337 334 331 330 328 325 323 324 324 323 322 322 322 323 325 327 325 324 325 327 327 327 327 327 327 328 328 328 328 328 329 329 328 328 328 327 326 325 324 323 324 323 321 320 319 318 319 319 318 318 318 316 312 313 315 314 313 314 316 317 318 319 319 318 317 316 317 319 320 320 320 320 322 323 324 324 323 320 318 318 319 319 319 318
335 337 341 341 334 327 325 326 326 326 326 323 322 323 324 325 327 331 331 327 323 324 325 324 325 325 324 325 326 327 327 327 327 327 328 328 328 328 327 326 325 325 324 324 323 322 321 320 319 319 318 318 319 319 317 314 314 316 317 316 316 316 313 311 311 314 314 314 314 316 318 319 319 319 319 319 320 321 323 324 322 319 318 318 319 320 319
333 333 335 335 331 327 327 329 331 331 327 322 320 321 321 323 327 331 330 325 322 324 325 323 323 322 320 321 324 325 325 326 326 326 326 326 326 327 327 326 326 325 324 324 324 323 322 321 321 320 319 319 319 319 317 316 316 318 318 317 317 317 314 308 308 311 314 315 316 317 317 318 318 318 317 318 318 319 321 322 321 319 318 318 318 318 318
332 333 334 335 333 331 332 333 333 332 328 325 325 323 321 322 325 327 327 323 320 321 324 323 322 320 318 319 322 323 322 323 324 324 323 323 323 323 324 324 324 324 324 324 324 324 323 322 322 321 320 320 319 319 319 318 317 318 318 317 317 317 314 308 309 313 315 315 315 316 316 317 318 318 317 317 318 320 321 321 320 318 317 315 314 313 313
332 332 332 333 333 331 334 335 334 331 329 328 327 324 323 323 324 325 325 323 319 319 321 320 319 318 318 318 319 318 318 319 319 319 319 320 320 320 321 321 322 323 323 323 323 323 323 323 323 322 322 321 320 319 319 318 317 317 317 316 316 317 314 309 309 314 315 314 315 316 316 316 317 317 316 316 317 319 321 320 317 315 313 311 310 310 311
331 331 331 332 331 330 332 333 332 331 332 329 325 322 320 319 319 320 320 319 318 318 319 318 317 317 317 317 316 316 317 317 316 316 317 319 319 319 319 320 321 321 322 322 323 323 323 323 323 323 323 322 321 321 320 319 317 317 317 316 315 316 315 311 309 312 314 315 316 316 315 315 315 316 315 315 315 317 318 317 314 311 310 310 310 310 311
328 329 329 329 328 327 330 332 334 336 334 327 321 318 318 317 318 318 318 318 318 318 317 317 317 317 317 316 317 316 316 316 316 316 316 317 318 318 319 320 322 322 322 322 323 323 323 324 324 323 323 323 322 321 320 319 318 317 318 318 316 316 316 313 310 311 313 315 316 315 314 314 314 315 314 314 314 315 315 314 311 310 309 309 309 310 310
322 324 324 323 321 321 324 327 330 333 333 330 325 321 318 318 318 318 318 318 318 318 318 317 317 317 317 317 316 316 316 316 316 315 315 316 317 317 317 319 320 321 322 322 322 323 323 323 323 324 323 323 322 321 320 319 318 317 318 318 317 317 317 315 311 311 313 315 315 314 313 313 314 314 314 313 313 314 314 312 310 309 309 308 308 309 309
321 324 324 321 319 319 320 320 321 322 324 325 324 320 318 318 319 319 318 318 317 317 317 317 316 316 316 316 315 315 314 314 314 314 314 315 316 317 316 317 318 320 321 321 321 321 321 322 322 323 323 322 321 320 319 318 318 317 317 318 318 317 316 315 313 313 314 315 314 313 313 314 313 312 311 311 311 312 312 311 310 309 308 308 308 307 308
321 322 322 320 320 320 320 320 320 320 319 319 320 319 318 318 318 317 317 316 315 315 315 314 314 314 314 314 314 314 314 315 315 315 315 316 316 316 316 316 317 320 322 322 321 320 321 322 323 323 323 323 322 321 320 319 318 318 317 317 317 316 315 314 314 314 314 314 313 312 313 313 312 310 310 310 310 310 310 310 308 308 307 307 307 307 307
322 320 321 321 321 321 321 320 320 320 319 318 317 317 316 316 315 315 315 314 314 314 314 313 313 313 313 313 314 314 315 316 316 315 316 316 315 315 315 314 315 316 317 318 318 318 318 320 321 322 322 322 322 321 321 319 318 318 317 317 316 315 314 314 314 314 313 313 312 312 312 311 310 310 310 310 309 309 309 308 307 307 306 306 306 306 306
322 321 321 321 321 321 321 320 319 318 317 316 315 314 314 314 313 313 313 313 313 313 313 313 313 313 313 314 314 314 315 315 315 315 315 315 315 314 314 313 312 313 313 313 314 314 314 315 317 319 320 321 321 321 320 319 318 317 317 316 316 315 314 313 313 312 312 312 312 311 311 310 310 310 310 309 309 309 308 307 306 306 305 305 305 305 304
321 320 320 320 320 319 318 316 316 315 315 314 314 313 313 313 313 312 313 313 312 312 313 313 313 314 314 314 314 314 314 314 314 315 315 315 315 314 313 312 311 311 311 312 313 313 313 314 315 317 319 320 321 321 320 318 318 317 316 315 315 314 314 313 312 311 312 312 311 310 310 309 308 309 309 308 308 307 307 305 305 305 304 304 304 304 303
320 319 319 318 317 316 315 314 314 314 313 313 313 312 312 312 312 312 312 312 312 313 313 313 313 314 314 314 314 314 314 314 315 315 315 314 313 313 312 312 311 311 312 313 313 312 313 315 316 318 319 320 320 319 318 317 317 316 314 313 312 312 311 311 310 311 311 311 311 310 309 308 307 307 307 307 306 306 305 305 304 304 304 303 303 303 302
319 318 317 316 315 314 314 314 314 313 313 313 312 312 312 312 312 312 312 312 312 312 313 313 313 314 314 313 313 314 313 313 314 314 314 313 312 312 311 311 311 312 313 314 313 313 314 316 316 317 318 318 317 317 317 316 314 312 311 310 310 310 310 309 309 310 311 311 309 308 308 307 306 306 305 305 305 304 304 304 303 303 303 302 302 302 301
316 315 314 314 314 314 314 314 313 312 312 312 312 312 312 312 312 312 311 312 312 312 312 313 313 313 313 313 313 313 312 312 312 313 313 312 311 311 311 311 312 313 313 314 314 314 315 315 316 316 316 316 315 315 314 312 311 310 309 309 309 308 309 309 308 308 309 309 308 307 307 306 305 305 304 304 304 303 303 303 303 302 302 301 301 301 300
315 314 314 314 314 313 313 313 312 312 312 312 311 312 311 311 311 311 311 312 312 312 312 312 312 312 312 312 312 312 311 310 311 312 313 311 310 310 311 311 312 312 313 314 314 314 314 314 314 314 314 313 312 312 311 310 309 309 309 309 308 307 307 308 307 306 306 306 306 305 305 304 304 303 303 303 303 302 302 302 301 301 301 300 300 300 299
314 314 313 313 313 313 312 312 312 311 311 311 311 311 310 310 311 312 312 312 312 312 312 312 312 312 312 312 311 311 310 310 310 311 312 311 310 309 310 310 310 310 311 312 312 311 312 312 313 313 312 311 309 308 307 307 307 307 307 307 306 306 306 305 305 305 305 304 304 304 303 303 303 302 302 301 301 301 301 300 300 300 300 300 299 299 299
314 313 313 313 313 312 312 312 311 310 310 310 310 310 311 311 311 312 312 311 312 312 312 312 312 312 312 311 311 310 309 309 309 309 309 309 309 309 308 308 308 308 309 310 310 310 310 310 310 310 310 308 306 305 305 305 305 305 306 306 305 305 304 304 303 303 303 303 303 303 302 302 301 301 301 300 300 300 300 299 299 299 299 299 299 298 298
312 312 312 312 312 311 311 311 311 311 310 310 311 311 312 312 311 311 311 311 312 312 312 311 311 311 311 311 311 310 309 309 308 307 307 307 307 307 306 306 306 306 307 308 308 307 307 308 307 307 307 306 305 305 305 304 304 304 304 304 304 304 303 303 302 302 302 302 301 301 301 301 300 300 300 300 299 299 299 299 299 298 298 298 298 298 297
312 312 312 311 311 311 311 311 311 311 311 311 312 312 312 311 310 310 311 311 311 311 311 311 311 310 310 310 310 310 309 309 308 307 307 306 306 306 306 306 306 306 305 305 305 305 305 305 305 306 306 305 305 305 305 304 303 303 303 303 303 303 302 302 302 301 301 301 300 300 300 300 299 299 299 299 299 298 298 298 298 298 298 298 297 297 297
312 312 312 311 311 311 311 311 311 311 311 311 311 311 311 310 309 310 310 311 311 311 311 310 310 310 309 309 309 309 309 308 308 307 307 306 306 305 305 306 306 305 304 305 305 304 303 303 303 303 304 304 304 304 304 303 303 302 302 303 302 302 302 301 301 301 301 300 300 300 299 299 299 299 298 298 298 298 298 298 298 298 297 297 297 297 297
312 311 311 311 311 311 311 311 312 312 312 311 311 310 310 310 309 309 310 310 310 310 310 310 309 309 309 308 308 308 308 307 307 306 306 306 305 305 304 304 304 304 304 303 303 302 301 300 300 300 301 303 303 303 303 303 303 302 301 302 301 301 301 301 301 300 300 300 300 299 299 299 299 298 298 298 298 298 298 298 297 297 297 297 297 297 296
312 311 311 311 311 311 311 311 312 312 311 311 311 310 310 310 309 310 310 310 310 310 309 309 309 309 308 308 308 307 307 306 306 305 305 305 304 304 303 303 303 303 303 302 301 301 301 301 299 299 301 302 302 301 302 302 302 301 301 301 301 301 301 300 300 300 300 299 299 299 299 299 299 298 298 298 298 298 298 298 297 297 297 297 297 296 296
311 311 311 311 311 311 311 311 311 311 311 311 311 311 310 310 309 309 309 310 310 309 309 308 308 309 308 308 307 307 306 306 306 305 305 304 304 303 302 303 303 303 303 303 302 301 301 300 298 299 300 302 301 301 301 301 300 300 300 300 300 300 300 300 299 299 299 299 299 299 299 299 299 298 298 298 298 298 298 298 297 297 297 297 297 296 296
Wind_Speed
4 4 3 4 3 3 1 6 10 11 12 12 11 9 6 3 6 2 2 6 7 4 8 10 9 7 7 8 8 7 7 7 7 6 7 9 9 8 7 5 5 7 8 8 6 6 5 8 14 17 16 15 16 16 15 13 10 8 14 20 20 23 28 27 26 27 24 20 20 21 24 28 28 26 27 26 27 27 28 30 31 30 28 26 25 25 24
6 7 6 1 2 1 3 9 10 12 13 11 10 10 10 11 9 4 5 9 7 4 6 8 7 7 7 7 8 8 8 8 8 8 8 9 9 7 6 4 3 6 8 7 5 5 5 7 12 16 19 19 18 18 16 15 12 9 8 11 13 15 19 23 25 26 23 19 15 13 17 24 27 25 23 22 23 25 28 30 31 30 28 27 27 26 25
6 6 8 6 5 7 7 10 10 11 12 12 10 8 8 9 8 5 8 8 5 3 4 5 6 7 8 9 10 9 8 8 10 10 10 9 7 5 6 5 4 5 6 7 7 7 7 7 9 11 15 19 21 20 19 17 16 13 10 8 9 11 14 18 23 23 22 19 14 9 11 16 20 20 19 18 17 17 22 29 31 31 29 27 27 25 24
5 4 8 8 6 13 10 10 10 10 11 10 8 7 6 5 5 5 7 5 3 3 4 5 8 10 11 11 11 8 8 9 10 10 10 10 9 7 7 7 6 6 6 7 8 9 11 14 16 15 14 15 18 18 18 17 17 17 14 8 5 6 7 13 20 22 21 20 16 11 10 11 13 15 15 15 14 13 18 24 27 28 27 26 26 25 23
5 5 7 5 5 10 7 4 6 5 8 11 10 8 8 6 3 4 3 0 3 3 4 6 9 11 11 10 9 7 6 7 8 8 9 9 9 8 8 7 7 6 6 8 11 12 13 14 16 18 18 17 15 14 14 14 15 17 16 10 8 7 6 9 15 20 20 19 16 13 10 9 9 10 11 12 13 14 16 20 22 24 25 25 24 23 23
4 6 6 5 5 4 1 3 8 4 9 15 12 8 8 7 5 5 4 2 1 1 4 7 8 8 7 7 7 7 6 5 6 8 8 7 7 7 7 7 7 6 7 10 13 16 16 15 15 17 18 18 15 13 11 10 11 13 13 9 9 9 8 9 10 13 16 16 15 13 11 9 9 9 8 8 10 12 14 15 14 14 15 18 21 22 23
2 4 5 6 3 1 3 2 8 5 8 16 15 11 10 8 7 8 6 5 4 4 5 5 5 5 5 5 7 8 8 7 6 8 8 7 7 7 7 7 7 8 10 12 14 17 18 17 17 17 16 15 15 13 11 11 11 11 11 9 9 9 10 10 8 7 8 9 10 10 10 10 11 11 10 10 10 10 10 11 10 6 4 6 10 13 17
1 3 4 2 2 3 4 4 4 4 2 7 11 11 10 7 5 6 5 4 5 6 5 3 3 3 4 5 7 8 8 7 6 6 6 6 6 7 7 8 8 10 13 14 17 20 20 20 20 19 17 18 19 18 17 14 12 11 11 10 8 7 7 7 6 5 6 5 5 6 7 7 9 10 11 13 13 11 9 10 14 15 13 11 10 9 11
1 2 2 2 2 3 5 3 1 3 7 3 4 6 4 5 3 3 4 4 4 4 3 2 2 2 4 5 6 7 7 6 5 5 6 8 9 10 11 12 14 17 18 18 19 21 22 23 23 21 19 20 22 24 23 20 16 13 12 10 8 5 4 3 2 2 4 5 5 7 9 9 10 11 13 15 13 11 12 14 15 17 17 16 16 16 15
2 4 3 2 2 1 4 5 3 3 7 6 3 6 2 4 4 1 3 5 4 4 4 4 3 1 4 3 2 5 5 4 4 6 9 12 13 13 13 15 18 21 22 22 21 22 22 22 21 21 21 21 21 23 23 22 20 17 14 12 9 6 3 2 0 2 1 2 4 7 8 9 9 8 10 13 11 9 14 17 15 16 18 18 16 16 17
2 4 3 2 2 3 5 6 5 5 7 6 3 5 2 4 3 2 1 3 3 3 4 4 3 2 2 1 4 3 3 2 4 5 8 12 15 15 15 16 17 19 21 23 24 24 25 23 21 20 21 22 22 21 21 21 21 19 17 15 13 11 9 6 5 5 4 3 2 4 5 5 4 4 6 8 9 7 10 13 15 16 19 19 19 19 19
1 3 2 1 1 3 4 5 6 6 6 2 5 3 3 5 4 2 1 2 2 2 2 2 2 2 2 4 4 3 2 1 4 7 9 10 13 15 16 17 18 19 22 23 23 23 24 24 23 22 23 23 22 20 20 21 20 18 17 16 15 15 14 12 11 10 8 6 3 1 1 3 4 5 7 7 6 7 10 13 15 16 16 17 19 20 19
1 3 3 1 2 3 4 5 7 6 2 5 4 3 5 4 3 2 2 1 1 2 3 2 1 3 3 4 3 1 3 3 5 10 12 13 13 14 14 15 17 20 21 21 21 20 21 22 23 23 23 23 20 18 18 19 18 15 15 16 16 16 15 14 12 11 10 9 8 6 3 1 2 3 6 6 6 7 10 11 13 16 18 17 17 16 15
1 3 3 1 2 4 5 5 5 3 4 3 3 5 4 4 3 2 3 3 1 3 4 3 2 1 3 5 4 3 4 4 5 9 12 13 13 13 13 14 16 18 19 19 19 18 18 19 20 21 23 22 19 16 16 15 14 13 13 14 15 16 16 15 13 11 11 11 11 10 8 5 3 2 1 3 5 7 9 11 12 14 14 13 12 11 10
2 3 3 2 2 5 4 2 3 4 3 5 4 3 3 3 3 3 4 3 3 5 6 5 5 5 6 6 4 5 5 5 6 8 10 11 12 12 12 13 14 17 18 18 18 16 15 16 16 18 21 21 18 17 15 13 11 11 12 12 13 15 16 16 14 12 11 10 11 11 11 10 9 9 7 4 4 5 8 11 12 11 11 11 10 10 9
2 2 1 2 4 4 1 3 2 1 1 4 4 4 3 2 2 3 3 2 3 6 7 6 6 6 6 5 4 5 4 4 5 7 8 11 13 13 13 12 12 15 17 17 17 16 14 14 14 15 17 17 16 15 13 11 11 11 11 11 11 13 15 15 14 13 12 11 11 11 11 11 12 14 14 12 9 6 7 11 12 12 13 14 14 15 16
3 4 4 4 4 0 4 5 4 3 4 4 5 5 4 2 2 3 3 4 4 5 7 7 6 6 6 5 5 5 4 3 4 5 6 9 11 12 12 12 11 12 14 14 15 15 13 12 12 12 12 14 13 12 11 10 10 10 10 11 11 11 12 12 13 13 13 13 13 12 11 11 13 14 15 15 15 12 8 8 10 12 13 15 17 19 18
2 3 2 3 4 4 5 4 4 5 6 4 5 6 4 3 3 3 4 5 5 6 6 6 5 5 6 6 5 5 5 4 5 6 7 7 9 10 11 11 10 10 11 12 12 12 11 10 9 9 9 10 10 9 8 9 9 9 8 9 10 10 9 10 10 10 11 12 12 12 12 13 14 15 14 14 16 16 13 10 7 9 12 15 17 17 15
3 3 2 4 6 6 5 5 5 5 6 4 4 5 4 3 4 4 4 5 5 6 7 6 6 6 7 7 6 6 5 5 6 7 7 6 6 6 7 7 7 8 9 10 9 9 8 8 7 7 7 7 7 6 6 7 7 7 7 7 8 10 10 11 11 10 10 10 8 8 10 11 13 15 14 13 14 17 17 16 12 10 11 12 13 13 13
3 3 4 5 5 4 4 6 5 4 5 5 4 4 4 4 4 4 5 6 5 4 6 6 7 6 6 7 7 6 5 7 8 9 9 8 6 5 4 4 5 6 8 9 8 7 6 4 4 4 4 4 3 4 5 5 5 6 7 7 8 10 10 11 11 11 11 11 10 10 10 10 10 13 14 12 13 15 17 17 17 16 14 11 10 11 13
4 3 3 5 6 4 2 4 4 5 5 5 5 5 5 5 5 5 5 6 5 6 6 6 6 6 6 7 8 7 5 7 9 11 11 10 9 8 6 4 4 4 6 7 7 6 5 3 2 2 3 2 2 2 3 3 3 4 5 6 8 10 11 11 11 11 12 13 14 14 14 13 13 14 15 14 13 14 15 15 15 15 15 14 12 11 12
3 3 5 6 6 2 3 4 5 5 6 7 6 5 5 5 5 5 5 5 5 7 8 8 8 6 5 7 9 8 7 9 12 13 13 11 10 9 8 8 7 5 4 4 4 4 4 3 2 0 1 1 2 3 3 4 4 3 3 3 6 9 11 11 11 12 12 12 12 13 13 14 14 15 15 15 14 15 15 15 14 13 13 14 12 10 10
6 7 8 7 6 4 6 6 6 6 6 7 7 6 6 5 5 5 5 5 4 4 6 9 10 7 6 9 10 8 8 12 14 15 14 13 11 10 9 11 11 9 7 6 5 4 4 5 4 4 4 3 2 2 2 3 4 2 3 3 4 6 8 9 9 10 10 11 12 12 11 10 11 13 15 14 14 15 15 15 14 13 11 12 11 10 10
3 5 8 7 6 6 6 7 7 6 7 8 7 5 6 5 6 7 6 4 5 4 3 5 10 11 10 11 10 8 8 12 15 15 15 14 12 11 11 12 13 12 11 10 8 6 5 5 5 5 6 6 4 4 3 0 2 3 5 6 6 6 6 6 7 7 7 8 10 11 10 9 8 9 11 13 13 13 13 14 15 15 14 13 13 12 12
3 5 7 6 7 7 6 5 6 6 9 10 7 5 6 6 6 8 7 5 6 7 5 4 6 10 11 12 11 9 8 9 12 13 13 12 11 11 11 13 14 13 12 11 10 8 7 6 5 4 5 4 4 4 4 4 3 4 5 6 6 6 6 6 5 5 5 4 4 5 8 8 7 6 7 9 10 10 11 12 14 15 15 14 14 13 13
6 6 5 5 5 5 6 6 5 5 9 11 7 5 7 7 5 7 9 9 8 8 8 7 7 6 8 10 11 10 9 9 8 9 9 9 9 9 9 11 13 12 11 11 10 9 9 8 8 6 5 4 4 4 4 5 6 5 5 6 5 5 5 5 5 5 4 4 2 2 4 7 7 5 4 4 5 9 11 11 11 13 13 12 11 12 12
6 7 7 7 5 4 5 6 6 7 10 12 10 7 8 8 7 8 10 11 10 9 9 8 7 7 7 7 7 8 9 8 7 7 7 7 8 7 7 9 10 11 11 12 11 10 10 9 10 10 8 6 5 4 4 5 7 7 6 6 6 5 5 5 4 4 3 2 2 2 2 4 6 5 4 4 3 6 9 10 11 12 11 10 9 9 11
5 4 5 6 6 7 7 7 9 10 10 12 12 11 9 7 7 8 7 7 9 10 11 10 9 8 7 6 6 6 7 7 6 6 6 7 7 7 8 9 10 11 12 13 12 11 10 10 11 11 10 9 8 6 5 6 8 8 7 6 6 6 6 6 5 4 4 3 2 3 3 3 5 6 6 5 4 5 7 10 11 11 10 9 7 7 8
5 4 4 4 6 7 6 7 8 8 8 10 12 12 10 5 5 4 5 5 7 8 9 10 11 10 8 6 6 6 6 6 4 5 6 7 8 8 9 10 11 12 13 13 13 13 13 13 13 12 11 11 11 10 8 8 9 8 7 6 6 5 3 4 6 6 6 5 5 5 5 4 4 5 6 6 6 6 6 8 12 13 12 9 6 5 4
5 6 6 5 6 8 8 6 6 6 6 7 8 8 8 6 5 4 5 6 7 7 7 9 10 9 7 6 7 7 6 5 4 3 4 5 7 9 10 11 12 12 13 15 16 16 16 16 15 14 13 13 13 12 11 10 10 8 7 8 8 6 4 4 6 8 8 8 6 5 5 5 5 5 5 6 6 7 8 10 14 15 13 9 6 5 3
6 7 8 7 6 7 6 5 5 5 5 5 5 5 5 6 6 6 6 5 7 9 10 10 10 9 7 7 9 8 6 5 4 3 4 4 6 7 9 10 12 14 16 18 19 19 18 18 18 17 15 14 14 14 13 11 11 10 9 10 10 7 5 4 7 9 8 7 6 4 4 4 4 5 6 7 8 9 11 15 17 16 13 10 8 6 4
7 7 8 7 6 6 6 5 5 5 4 5 6 5 5 5 5 5 6 5 6 9 11 10 9 10 9 9 9 7 5 4 3 3 5 7 7 8 9 10 12 13 15 17 18 18 19 20 21 20 17 16 16 16 15 13 12 12 11 11 11 9 5 5 8 9 7 6 5 4 4 4 4 6 8 9 10 11 14 17 18 16 14 12 11 9 6
9 6 6 6 6 6 5 5 6 6 5 5 5 6 7 8 8 7 7 7 8 9 9 7 7 8 8 7 6 4 3 2 2 4 6 8 10 11 12 12 13 13 14 14 15 16 18 20 22 21 19 18 18 18 17 16 15 14 13 12 12 10 7 5 7 9 8 5 5 5 5 5 5 7 9 10 11 12 15 17 17 16 14 14 13 11 9
11 9 9 9 8 7 6 5 5 5 4 4 5 6 8 10 11 10 10 10 10 9 7 6 5 4 3 2 1 1 1 3 4 5 6 7 8 9 10 12 13 14 14 14 14 15 17 19 21 21 20 20 20 20 19 18 17 17 16 14 13 13 10 7 7 9 8 6 6 6 5 5 5 7 8 9 11 12 14 16 17 16 16 15 14 12 10
11 9 10 11 11 10 9 8 6 6 5 4 4 6 8 9 10 10 9 7 6 6 4 4 3 2 1 2 2 3 3 2 2 4 6 6 6 6 6 7 9 11 13 13 13 14 15 16 18 18 19 19 20 21 21 19 18 18 18 17 17 16 12 8 7 9 8 7 7 7 6 6 6 5 5 7 8 11 15 17 17 16 16 15 13 11 10
12 8 6 9 11 11 11 10 9 8 8 7 7 8 8 8 8 7 6 5 5 5 4 4 3 3 3 4 4 3 3 4 5 6 6 5 5 5 5 5 6 9 11 12 13 13 14 16 17 16 17 18 19 21 21 20 19 19 18 17 18 17 14 10 8 8 9 9 9 8 7 6 5 4 4 6 7 10 14 17 16 15 15 14 12 10 9
16 13 10 10 13 14 14 13 13 12 11 10 8 8 8 7 7 7 7 7 6 5 4 4 4 4 5 4 4 4 5 5 4 3 3 3 4 4 5 5 6 6 8 11 13 13 14 16 17 16 17 18 19 20 21 21 21 20 19 18 17 18 17 15 11 10 11 12 11 10 9 7 6 5 6 7 9 12 14 16 15 14 13 13 11 10 8
16 18 16 14 15 16 15 13 13 12 11 10 10 9 9 9 9 9 9 8 7 6 5 5 5 4 4 4 5 5 6 5 5 4 5 5 6 6 6 6 6 7 9 11 12 13 14 15 15 16 17 18 19 19 20 21 21 21 22 23 22 21 19 17 13 13 14 14 13 12 10 9 8 8 8 9 11 12 13 13 13 12 12 12 12 11 9
12 14 16 16 16 16 14 13 12 11 12 13 13 12 11 10 9 9 9 9 8 6 6 5 5 4 4 4 4 4 4 4 5 6 7 7 7 8 8 9 9 10 12 13 13 14 14 14 15 17 18 19 20 20 19 20 21 21 23 25 24 22 21 18 15 14 15 14 13 13 11 10 10 11 10 11 13 12 11 11 11 12 13 13 13 12 11
9 12 15 16 15 14 14 14 14 14 14 14 13 11 10 9 8 8 8 7 6 5 4 5 4 3 3 3 3 2 3 4 5 5 5 5 7 8 9 11 12 12 12 13 14 15 15 16 17 18 18 18 19 19 18 19 21 21 21 23 24 23 22 19 16 14 13 14 15 15 13 11 11 12 13 13 13 11 10 10 12 13 13 13 12 11 11
11 13 15 14 14 15 16 16 15 15 14 13 12 10 7 6 6 6 6 5 4 4 4 4 4 3 3 3 2 2 2 3 3 3 4 5 7 8 9 12 14 13 12 13 14 15 15 16 16 16 16 17 17 17 17 19 22 21 20 20 20 18 16 15 13 13 13 15 18 18 15 11 11 12 13 12 11 10 11 12 13 13 13 13 12 11 10
13 15 15 14 15 16 17 16 16 15 13 10 8 7 5 4 4 5 4 4 3 3 3 4 3 3 3 2 2 2 2 2 2 2 4 5 6 6 8 12 14 13 12 12 13 13 13 12 12 12 13 14 15 16 18 21 21 20 19 18 15 14 13 12 11 12 15 18 18 17 14 11 11 13 14 13 11 11 13 14 13 13 11 10 10 10 10
15 17 16 15 15 16 16 16 15 14 11 9 8 7 6 5 4 3 2 2 2 2 3 3 3 3 3 2 2 2 2 2 3 2 3 3 4 5 7 10 12 12 11 11 11 11 10 9 8 9 10 11 14 17 19 19 18 17 15 13 10 10 11 10 8 10 15 17 16 14 14 15 15 15 14 13 12 13 14 14 13 13 12 11 11 11 11
18 18 17 16 16 17 17 16 14 13 12 10 8 7 5 4 2 2 2 3 3 3 3 3 3 3 3 3 3 3 3 3 3 2 2 2 1 3 5 6 8 9 9 9 9 7 7 7 7 6 8 11 14 14 13 13 12 12 11 10 9 10 11 11 10 12 14 15 15 15 16 16 15 14 13 12 13 14 14 14 13 13 13 12 12 12 12
18 19 19 19 18 16 15 14 14 13 11 9 7 5 4 3 2 3 4 4 3 4 4 4 4 4 3 4 5 5 4 4 5 3 0 3 2 3 4 5 6 6 7 6 5 3 3 4 5 6 9 10 10 8 9 9 10 10 11 12 13 14 16 16 16 15 14 14 15 15 14 13 13 12 12 13 14 14 14 14 13 12 12 12 11 11 11
19 19 20 19 17 15 15 14 13 11 9 7 5 4 4 4 4 5 5 4 5 5 5 4 4 4 4 5 6 6 5 4 5 5 3 1 1 2 3 3 3 3 2 2 2 4 6 7 8 10 11 11 11 12 13 13 10 8 11 15 17 17 17 17 16 14 14 15 15 14 13 12 11 11 12 12 13 14 14 13 11 10 9 9 9 9 8
19 19 18 18 17 15 13 11 9 8 8 6 5 6 6 7 7 6 5 6 7 7 6 5 5 4 4 4 4 4 3 3 3 3 3 3 1 0 1 1 1 1 2 3 4 5 6 7 8 8 9 10 10 9 9 11 11 10 11 14 15 15 14 14 13 13 14 14 14 13 12 11 11 12 12 12 12 12 12 11 10 8 7 7 8 8 7
20 18 18 18 16 13 10 9 9 8 7 7 6 7 9 10 8 6 6 8 8 8 6 5 5 4 4 3 2 3 3 2 2 1 0 1 1 1 3 3 3 2 3 3 3 3 2 2 2 2 4 5 4 4 5 7 7 7 10 12 13 13 13 13 12 11 12 13 13 13 12 12 12 11 10 9 9 9 9 10 9 8 7 7 9 8 7
20 19 19 17 15 12 11 11 10 9 9 9 10 12 11 9 7 7 8 9 9 8 6 5 4 4 4 4 3 4 3 3 3 3 3 3 2 1 1 2 2 1 2 2 1 1 1 1 1 2 2 3 4 5 6 6 6 8 11 13 12 12 13 12 10 9 9 10 11 10 9 9 9 8 7 7 8 8 8 7 6 5 5 7 9 9 7
20 19 18 17 15 14 14 12 10 10 12 13 13 12 9 8 9 9 9 9 10 9 7 5 5 5 4 4 4 4 3 1 1 2 3 4 3 2 2 2 2 1 2 2 2 1 1 2 2 1 2 4 4 6 7 6 6 10 13 13 13 13 13 11 10 9 9 9 9 8 8 7 7 5 5 6 7 7 7 7 6 4 5 6 8 7 5
20 19 18 17 17 16 14 11 10 11 13 13 12 10 9 8 9 10 10 11 12 11 9 7 7 7 6 5 5 4 3 2 2 1 2 3 2 2 2 2 3 2 1 1 1 2 2 3 2 3 6 7 7 7 8 10 10 12 13 13 12 12 12 10 10 10 10 9 9 9 8 8 7 6 5 5 6 7 8 8 7 6 6 6 6 6 5
22 20 19 18 17 16 14 12 11 11 12 12 12 11 10 10 10 10 10 11 12 14 12 10 9 9 8 7 6 6 5 4 3 2 2 1 0 0 1 2 3 2 1 3 4 4 3 1 2 7 7 5 4 7 10 11 11 11 10 10 9 9 9 8 9 9 10 10 10 10 9 10 9 8 7 6 6 6 7 8 8 7 5 5 6 7 7
Wind_Direction
295 289 265 222 229 262 14 38 40 50 48 44 47 33 2 46 97 119 339 43 57 360 354 24 23 12 28 27 12 13 26 37 47 39 20 22 34 44 55 57 48 47 31 3 14 49 77 107 114 114 102 82 75 78 78 81 92 133 171 179 188 193 191 189 191 194 195 197 200 207 215 217 216 218 222 226 228 228 226 222 220 221 223 224 222 222 225
329 320 315 314 137 157 70 58 54 59 54 44 47 46 53 73 83 84 56 45 36 4 5 22 20 14 26 29 22 24 26 31 48 52 39 35 30 24 37 51 54 58 42 17 29 75 104 125 132 131 127 124 122 122 124 119 105 93 119 151 169 184 186 184 184 188 191 192 193 200 211 216 217 218 221 224 226 227 227 225 222 220 221 223 222 222 225
319 307 321 338 100 112 73 51 54 67 64 47 40 40 51 73 79 62 49 38 10 346 8 24 33 33 39 39 31 30 31 37 56 63 58 56 49 33 38 50 73 79 61 46 49 52 58 79 96 103 111 122 127 132 140 141 136 132 124 123 144 164 176 178 178 181 184 185 186 185 188 199 208 211 214 217 219 221 222 222 221 218 218 219 220 222 226
298 296 337 342 92 97 65 38 33 52 70 63 48 33 22 56 95 83 57 37 334 326 356 22 39 40 40 37 31 36 46 51 61 65 63 60 55 51 51 55 76 89 84 82 80 65 61 76 90 93 95 105 111 120 135 139 137 141 141 133 138 158 176 180 177 178 181 181 182 182 174 176 185 192 199 204 207 209 212 214 215 215 217 219 221 222 225
285 302 338 336 90 85 58 14 345 14 86 78 57 44 24 19 71 93 76 14 281 322 11 31 40 40 38 35 32 34 42 55 67 66 64 63 54 50 56 61 68 74 76 82 85 80 74 79 92 101 104 102 98 106 126 137 143 149 150 158 180 195 221 213 189 183 187 191 192 192 190 187 184 183 187 192 193 196 201 206 211 214 216 217 218 219 221
280 303 338 14 62 73 211 303 326 341 99 87 68 52 28 21 51 81 93 136 192 32 48 53 55 53 45 37 32 28 26 45 70 66 56 53 50 50 54 58 56 55 65 78 83 84 83 80 82 91 98 101 101 103 111 121 139 150 151 165 190 200 224 239 215 194 197 204 207 212 220 225 219 210 206 199 193 192 195 199 202 206 212 214 212 212 215
275 317 16 44 61 215 230 331 346 342 95 93 81 60 38 42 75 90 98 118 119 102 86 78 80 84 75 53 36 28 25 29 55 67 58 39 34 39 40 41 46 51 60 71 78 81 84 84 85 89 95 103 105 104 108 120 134 143 147 166 191 202 219 238 241 223 220 221 219 226 238 243 240 238 238 237 229 216 204 199 197 198 222 232 224 220 220
318 13 42 82 192 271 314 25 23 303 297 90 81 57 31 28 73 102 118 134 128 122 118 107 108 110 91 62 38 24 27 36 47 61 67 59 50 48 44 38 42 53 65 73 79 82 83 83 81 80 85 97 101 96 97 110 123 130 133 141 155 175 201 228 245 240 236 236 225 226 239 252 259 261 260 253 241 224 212 208 206 212 223 230 233 238 238
128 83 68 80 72 344 328 348 90 278 295 313 97 89 28 356 18 109 139 149 154 151 142 149 171 114 71 52 25 6 12 36 48 45 60 75 76 69 63 60 58 61 68 75 81 85 85 83 81 78 77 83 89 89 89 93 99 107 111 111 120 137 163 204 237 219 207 207 206 211 219 232 247 257 262 262 251 232 234 232 211 206 216 221 221 226 233
94 95 90 73 83 195 255 258 241 268 293 293 118 107 41 330 340 25 155 162 175 177 174 200 221 48 48 40 342 336 344 12 50 54 60 71 78 75 70 69 69 69 71 75 79 82 82 79 79 79 77 76 76 78 82 87 90 93 93 94 104 115 125 154 103 22 345 258 249 246 242 243 249 253 259 267 267 252 251 253 240 227 229 230 229 232 236
45 93 109 145 187 212 230 245 250 253 258 249 117 76 356 288 304 325 186 183 198 195 193 203 195 90 55 239 256 289 318 12 50 59 61 67 73 75 73 72 72 73 75 77 78 79 80 81 83 82 79 76 71 66 66 72 75 75 76 80 87 91 92 94 89 73 56 37 341 294 285 282 281 279 269 266 266 262 260 262 258 250 242 235 233 237 237
25 106 108 140 195 241 255 264 271 267 257 204 99 70 278 258 278 301 196 210 246 213 198 181 146 158 206 206 220 270 296 11 50 61 68 73 76 77 78 79 80 81 81 80 78 77 78 83 88 89 84 78 72 66 64 64 61 60 67 76 81 86 89 92 93 93 90 84 76 50 304 269 263 271 270 263 255 250 249 248 249 248 241 228 222 223 226
58 100 107 177 248 257 264 277 282 282 333 65 104 198 230 224 240 253 148 159 237 171 139 122 171 232 222 159 142 353 347 6 44 65 79 85 83 81 83 86 86 86 84 83 83 82 85 90 93 95 93 86 78 73 72 68 61 57 65 77 84 86 88 90 91 91 88 83 79 80 87 193 245 254 254 245 229 227 235 238 240 242 239 230 221 216 217
64 101 108 86 290 269 251 265 295 345 69 97 192 211 199 176 187 173 126 136 138 105 106 112 132 147 101 99 89 40 32 32 38 62 79 81 75 75 79 82 85 87 86 85 84 85 91 96 98 100 101 96 89 84 80 75 74 72 72 77 82 81 79 80 85 87 83 72 67 71 79 82 74 59 262 222 208 214 222 220 218 221 223 218 211 201 196
86 71 68 70 261 263 253 257 330 17 109 180 193 160 141 153 148 123 121 146 131 107 109 111 109 102 89 82 72 53 48 44 44 58 71 72 67 68 70 69 78 88 88 85 83 86 93 99 101 105 106 103 99 95 87 84 91 92 83 81 81 76 72 73 79 87 89 77 67 67 71 75 75 67 60 77 130 170 190 190 182 174 167 164 160 152 143
108 106 148 185 215 256 320 109 119 18 129 162 141 120 126 127 112 113 118 132 127 120 123 123 115 112 108 105 99 84 67 58 61 63 68 73 75 76 75 73 77 83 84 82 82 86 92 94 96 101 104 103 100 93 87 91 103 106 100 99 98 88 80 77 79 85 87 84 81 80 76 74 74 70 66 66 72 97 148 162 158 148 144 144 139 128 118
153 165 188 197 198 227 46 89 123 99 87 112 120 122 131 137 138 138 131 135 137 130 132 134 129 130 136 133 128 122 115 110 99 86 79 83 87 87 87 88 83 78 77 80 83 84 85 89 92 93 96 98 92 79 75 84 95 103 106 107 108 105 96 91 89 87 83 78 75 77 75 67 62 61 61 61 60 66 97 134 146 148 144 138 131 123 115
98 89 103 136 130 99 73 74 96 99 96 100 106 105 111 138 151 143 139 147 151 145 143 142 140 147 151 144 143 146 143 141 136 127 116 106 105 106 104 101 96 86 81 81 81 77 75 78 84 85 87 88 80 67 70 82 87 95 104 101 99 97 97 99 102 98 90 82 73 67 64 59 54 51 50 55 59 61 67 79 107 136 138 131 126 121 117
98 89 137 143 125 121 115 95 80 87 94 97 107 110 116 128 128 129 135 136 137 147 154 154 154 160 159 153 155 160 153 155 158 150 141 133 124 118 111 103 99 100 98 90 82 75 70 69 75 80 80 77 68 60 67 78 80 83 87 87 86 86 90 99 104 101 96 94 90 80 67 57 54 52 49 51 57 58 59 63 74 100 120 128 129 124 119
101 139 174 147 112 113 127 113 107 110 107 107 116 123 126 119 104 112 131 128 127 145 157 156 153 158 164 163 165 168 162 165 175 172 166 167 167 151 127 111 109 112 113 109 101 92 81 64 55 60 61 60 56 49 53 60 66 71 72 71 75 84 93 99 97 94 93 93 91 85 74 64 63 63 60 56 56 56 56 57 64 80 96 107 113 117 117
82 95 140 120 86 53 63 112 131 141 128 119 118 117 115 108 91 89 111 130 145 153 153 149 142 146 164 170 168 170 169 170 180 185 185 185 180 169 166 173 157 127 124 129 126 118 115 107 72 27 18 18 9 3 16 20 25 52 68 64 67 78 90 97 100 100 99 95 88 81 77 74 73 72 71 70 69 67 65 61 63 74 86 90 92 97 101
142 186 182 153 126 131 197 173 155 149 132 115 111 116 119 119 116 107 101 111 135 145 150 151 144 143 166 172 168 171 177 181 188 193 193 189 179 171 174 180 174 155 142 145 147 146 153 161 164 171 358 2 350 350 356 357 1 29 77 75 66 70 73 81 96 107 109 105 98 89 84 82 81 81 80 80 80 81 82 80 75 74 77 79 78 79 78
198 202 191 168 139 156 198 188 162 153 131 108 107 123 133 137 139 132 119 116 125 137 156 162 160 161 172 172 169 171 185 193 195 196 198 195 188 181 181 179 172 166 161 159 161 173 188 200 213 223 223 224 266 310 342 11 17 43 103 101 90 81 67 63 79 98 105 106 104 98 93 93 96 96 92 87 86 88 91 92 90 85 80 77 73 70 70
188 186 180 167 144 156 187 185 168 157 135 117 114 122 125 127 128 125 125 146 157 148 144 163 172 177 179 175 170 165 178 196 200 199 202 205 201 197 195 189 180 175 173 174 173 172 180 191 202 214 217 217 231 253 261 304 75 109 124 114 105 103 92 75 74 84 93 98 98 96 97 103 112 113 107 100 98 97 95 95 96 93 88 84 76 68 66
152 176 177 163 149 156 165 156 149 147 133 124 122 127 124 121 121 117 111 119 154 159 142 119 157 179 183 181 178 168 162 179 195 201 205 208 209 208 206 199 191 187 187 187 184 182 185 187 184 189 203 217 237 248 238 219 186 155 143 132 119 114 113 108 99 96 100 103 96 83 84 94 110 122 116 112 117 120 113 105 101 98 92 84 76 71 69
143 157 149 123 123 139 134 118 121 145 139 130 130 145 140 130 128 128 119 113 129 152 149 123 119 146 165 173 181 182 171 163 175 192 197 196 200 206 207 204 203 201 199 198 195 194 193 190 188 191 202 224 249 254 240 219 205 193 178 164 152 142 138 135 127 119 113 111 109 93 81 84 91 97 86 91 128 148 145 129 113 105 99 85 70 70 73
134 144 129 110 115 149 161 153 156 165 153 140 139 157 165 159 150 139 129 120 121 131 140 139 128 121 128 146 167 180 179 169 167 177 187 189 196 208 214 216 218 218 214 211 209 206 201 193 191 196 205 214 221 229 244 232 217 210 204 196 191 186 182 176 168 158 148 128 118 140 120 85 74 70 59 59 120 165 167 155 134 117 107 94 75 67 67
124 135 127 134 162 188 191 170 156 156 156 153 154 167 180 169 140 132 132 128 123 123 127 133 132 124 124 140 156 162 167 171 175 186 199 206 213 223 228 231 233 231 228 226 223 218 214 210 209 209 211 209 207 215 235 231 215 209 211 211 205 201 199 201 200 194 191 189 171 162 152 104 74 71 73 84 116 151 165 166 157 140 126 117 100 79 64
113 100 92 118 151 154 147 141 137 138 149 158 163 173 181 160 123 144 168 146 128 127 129 131 132 128 124 136 155 163 168 176 187 204 218 226 233 238 240 239 237 234 234 235 234 229 226 224 224 224 221 213 209 213 219 207 195 200 218 222 213 209 220 220 207 191 175 160 143 140 146 131 102 87 80 86 110 127 139 158 161 149 137 131 121 99 76
131 118 109 110 114 112 118 132 138 139 153 158 154 162 167 147 132 164 180 153 142 157 164 153 146 142 138 143 152 158 167 177 189 208 226 241 250 253 253 249 241 237 240 242 240 236 234 232 233 236 234 225 217 216 214 202 194 206 229 233 226 235 265 245 200 178 163 149 132 125 138 140 126 108 91 85 98 111 121 138 147 143 134 125 111 96 83
140 128 127 127 119 119 135 157 158 158 170 160 131 123 131 130 133 156 168 165 168 179 184 176 165 163 168 163 152 148 157 173 187 209 233 247 258 263 266 261 252 249 253 255 251 245 238 234 235 241 242 234 226 224 223 216 211 219 230 230 225 232 254 230 194 177 163 150 135 124 135 141 130 115 104 97 101 110 120 130 136 134 127 114 98 84 73
130 127 133 139 139 140 155 173 167 160 157 142 134 138 142 139 146 160 159 152 162 173 180 181 171 164 160 155 149 150 162 175 194 236 253 256 258 263 267 267 264 264 267 270 267 257 243 236 238 245 245 237 232 231 231 229 226 227 230 227 225 230 240 221 198 188 176 160 149 143 144 143 132 121 112 105 108 120 129 131 130 125 117 107 95 83 81
135 138 150 155 149 148 167 188 182 174 171 162 161 167 156 141 138 142 138 124 123 135 145 145 141 141 141 138 139 144 154 190 254 271 269 266 268 270 270 269 270 271 273 276 276 265 251 244 246 248 244 237 233 232 231 233 235 233 230 230 230 230 232 222 202 194 188 179 172 170 166 154 139 130 121 111 112 125 135 135 130 124 115 105 96 89 89
160 168 174 172 165 162 175 190 185 174 175 175 165 157 149 143 138 135 134 128 122 122 126 125 121 123 119 105 87 25 330 293 280 282 287 289 289 287 281 275 274 275 278 278 275 266 258 253 252 252 247 239 234 230 229 232 234 231 228 229 230 226 222 215 204 197 192 186 182 183 182 169 147 137 129 119 117 128 138 138 132 125 118 110 103 98 94
166 167 170 172 174 172 171 175 176 166 159 157 149 140 142 148 147 142 140 139 136 137 144 147 147 147 116 82 71 54 35 8 327 322 326 326 324 318 308 292 279 277 278 279 276 273 271 268 263 257 250 239 230 226 227 229 230 230 230 232 233 229 220 207 201 201 199 194 191 191 188 175 158 149 143 131 124 132 141 140 133 126 121 117 111 105 98
148 142 151 162 160 155 151 153 155 150 139 133 128 122 121 127 133 132 130 128 122 120 122 122 116 106 92 84 72 48 19 347 325 319 322 328 326 320 321 318 301 284 279 279 280 281 282 279 272 263 253 242 232 227 226 226 228 231 232 231 229 224 215 206 205 208 205 200 196 191 188 185 184 189 180 158 141 139 143 141 134 127 126 126 122 116 109
141 136 135 139 137 133 130 130 131 129 122 117 118 118 114 111 110 109 106 100 93 93 97 97 92 88 79 67 51 34 20 6 350 337 334 339 337 330 330 331 322 298 281 280 284 285 283 279 273 265 258 253 246 239 234 231 232 234 229 219 208 202 200 199 199 196 193 191 190 190 191 189 185 182 175 162 151 146 144 139 133 128 129 132 133 130 126
145 142 140 140 136 131 128 127 129 128 119 108 102 101 103 104 100 94 89 81 76 81 88 87 85 81 68 54 50 48 41 33 25 11 353 342 338 334 329 322 313 299 288 288 290 291 287 282 276 270 265 261 258 252 243 235 232 231 223 211 201 194 191 190 187 184 186 187 187 191 192 186 178 177 175 166 159 155 148 142 137 134 133 133 135 136 133
144 142 140 139 136 133 130 127 126 128 125 117 106 99 99 101 96 91 90 86 80 77 76 72 65 58 53 56 63 61 44 15 348 332 325 323 325 326 319 309 303 299 295 292 290 286 283 278 274 271 269 265 262 258 248 234 228 225 219 213 209 204 199 194 188 185 189 194 193 190 186 184 187 190 185 172 164 160 152 144 141 141 137 135 134 133 130
142 141 139 137 135 133 128 122 117 119 124 122 115 107 103 101 95 91 89 83 74 67 63 57 49 47 61 72 70 48 17 351 330 314 303 304 313 317 312 305 304 305 300 290 282 279 276 271 266 266 266 263 260 257 245 230 225 223 218 212 209 204 200 197 193 188 194 202 199 190 178 170 170 174 172 167 163 161 156 151 149 147 143 140 138 137 135
144 141 137 134 133 131 126 121 118 117 118 117 113 108 103 98 94 88 77 67 66 69 66 59 60 71 83 80 59 34 13 349 326 299 289 303 316 320 312 305 306 306 298 285 279 277 276 273 269 266 262 255 251 245 233 222 220 216 207 200 196 190 184 185 189 194 200 198 190 180 170 161 157 160 162 163 162 161 161 159 157 154 149 144 143 143 140
141 138 132 128 129 129 127 125 123 119 117 116 116 110 101 98 100 92 78 71 74 75 68 65 70 80 88 90 90 88 70 32 350 305 297 309 319 319 311 307 308 307 298 289 286 285 284 281 274 266 259 252 242 230 217 210 204 195 183 176 176 177 176 175 177 183 187 184 177 171 172 177 176 169 164 162 162 163 163 160 157 155 152 148 148 148 144
139 135 129 127 129 130 129 129 127 123 119 122 125 124 122 125 126 121 112 108 98 89 93 97 94 90 98 116 124 114 68 17 351 313 289 302 321 316 306 307 313 314 306 294 288 286 287 287 280 269 259 242 222 209 201 195 189 183 177 172 170 177 186 189 184 179 178 175 169 166 170 175 173 166 159 157 158 159 160 159 157 154 151 149 149 149 146
136 133 130 129 131 131 131 132 131 126 122 123 128 135 140 146 161 181 165 145 126 113 116 117 108 100 109 121 117 101 69 26 10 348 234 224 275 321 314 312 316 317 307 292 278 268 269 277 273 250 222 209 202 195 191 191 193 197 200 199 190 179 176 177 177 173 168 162 157 155 156 158 158 157 153 152 153 153 153 152 151 150 149 149 149 149 149
132 132 131 131 132 133 135 135 134 131 129 133 142 152 159 168 176 163 150 141 129 121 120 118 111 109 117 120 111 100 82 53 37 32 217 214 240 317 326 321 317 313 304 291 272 232 215 236 230 205 192 192 188 170 156 166 185 194 189 178 167 156 153 155 159 161 158 156 156 156 153 150 149 149 148 148 150 149 147 145 145 148 151 151 150 150 152
129 131 132 131 130 131 133 136 137 138 137 141 156 183 201 198 177 159 149 143 133 124 120 117 111 110 123 132 126 116 103 82 57 37 24 2 299 317 326 327 318 303 286 264 210 150 138 146 159 162 159 158 154 142 129 124 129 149 165 163 157 150 147 146 145 144 146 149 152 152 150 147 146 146 147 148 148 146 144 144 144 145 147 149 150 153 155
130 130 132 132 131 132 134 138 143 147 150 164 200 215 197 168 153 145 142 141 134 128 123 118 108 100 107 128 141 142 130 113 86 40 15 10 359 219 136 104 108 181 175 155 141 133 128 131 140 149 150 149 150 148 135 119 111 119 141 153 154 152 151 147 139 134 137 141 144 145 145 144 143 142 144 145 144 143 145 147 144 139 139 149 154 151 145
135 135 136 137 137 141 148 155 161 169 183 199 203 183 158 145 139 136 138 140 137 130 125 123 120 115 113 121 150 186 195 190 187 189 189 337 283 174 137 125 132 165 171 154 138 130 133 137 142 167 175 171 167 161 149 138 133 143 158 162 160 155 152 150 146 141 140 141 142 142 141 140 140 141 143 142 140 142 147 149 145 138 139 153 161 158 151
142 142 144 146 149 157 166 171 181 196 201 183 161 151 149 147 144 143 146 148 145 139 134 134 138 144 149 156 172 188 206 235 253 237 211 210 224 222 170 161 173 212 248 261 278 299 317 345 324 282 246 212 188 177 165 147 137 149 160 163 160 153 149 149 149 149 148 149 149 147 144 141 140 141 148 153 153 153 156 158 157 153 154 160 164 162 157
146 147 151 156 163 173 181 188 197 200 188 169 156 153 158 161 159 161 165 164 155 149 147 148 152 161 171 184 192 197 204 231 259 241 214 208 222 258 264 201 182 216 288 290 276 262 25 24 1 270 182 137 136 170 190 187 162 147 145 145 145 147 150 152 151 150 152 157 159 157 153 147 139 135 145 158 166 172 173 168 164 172 183 179 172 167 169
154 158 163 168 175 182 186 185 180 177 174 170 166 165 166 165 166 171 177 174 165 159 159 164 173 183 193 195 192 194 193 169 146 173 199 195 214 280 278 187 167 177 244 346 346 302 305 331 339 167 152 122 100 116 141 149 146 141 137 133 135 141 146 150 152 153 155 158 159 157 156 156 155 157 162 164 165 170 172 166 160 170 191 198 192 191 200
163 169 173 176 180 182 177 169 167 171 174 174 174 175 176 176 174 175 180 181 175 171 171 177 184 192 201 200 191 187 191 188 176 172 177 168 138 324 222 171 166 188 296 339 344 334 315 296 164 155 145 118 99 125 135 136 139 141 138 133 134 137 138 141 148 156 162 165 164 163 163 163 161 162 172 182 184 186 190 190 184 181 189 202 203 199 195